KANOPUS-V 1

导读

KANOPUS-V 1(老人星-V 1)是独联体(CIS,实际由俄罗斯国家航天集团研制)的首颗“老人星-V”系列环境与灾害监测卫星,于2012年7月22日发射,运行在510千米高的太阳同步轨道。卫星质量465千克,设计寿命5年,可提供全色2.1米、多光谱10.5米分辨率影像,承担灾害监测、测绘、森林火灾预警、环境监测、农业与自然资源观测等任务。

Basic Information
目录编号:
38707
目录名称:
KANOPUS-V 1
国际标识:
2012-039A
轨道中心:
EARTH
卫星名称:
KANOPUS-V 1
卫星全名:
--
卫星状态:
已陨落 最后检测时间 2024-11-19
发射日期:
2012-07-22 UTC
国别 :
俄罗斯(独联体) (CIS)
星等 :
--
Orbit Information
数据来源 国际轨道数据
星历时间: 2024-11-19T11:34:44+0800
轨道信息已过期602天
半长轴: 6546.083km
偏心率: 0.0006695
轨道倾角: 97.481°
近地点辐角 149.033°
升交点赤经 272.403°
平近点角 271.657°
近地点: 163.565km
远地点: 172.331km
周期: 87.848分钟
每日圈数: 16.391949
Detailed Information
使用方式:
暂无